Le Mars, IA

3:25 PM CST on December 08, 2019 (GMT -0600)
Le Mars Municipal

Weather History for KLRJ - November, 2019

Change the Weather History Date:

Tuesday, November 12, 2019

  Actual Average Record
Temperature  
Mean Temperature 10 °F -  
Max Temperature 23 °F 43 °F 68 °F (1999)
Min Temperature -2 °F 23 °F -2 °F (2019)
Degree Days  
Heating Degree Days 54    
Moisture  
Dew Point 6 °F    
Average Humidity 77    
Maximum Humidity 92    
Minimum Humidity 63    
Precipitation  
Precipitation 0.00 in - - ()
Sea Level Pressure  
Sea Level Pressure 30.30 in    
Wind  
Wind Speed 10 mph (South)    
Max Wind Speed 31 mph    
Max Gust Speed 40 mph    
Visibility 10 miles    
Events      
Averages and records for this station are not official NWS values.
T = Trace of Precipitation, MM = Missing Value Source: NWS Daily Summary

Daily Weather History Graph

Daily Weather History Graph

Search for Another Location

Airport or City:

Astronomy

Nov. 12, 2019 Rise Set
Actual Time 7:12 AM CST 5:04 PM CST
Civil Twilight 6:42 AM CST 5:34 PM CST
Nautical Twilight 6:08 AM CST 6:08 PM CST
Astronomical Twilight 5:35 AM CST 6:42 PM CST
Moon 5:33 PM CST (11/12) 7:04 AM CST (11/12)
Length of Visible Light 10h 52m
Length of Day
9h 52m
Full, 100% of the Moon is Illuminated
Nov 12
Full
Nov 19
Last Quarter
Nov 26
New
Dec 4
First Quarter
Dec 11
Full

Hourly Weather History & Observations

Time (CST) Temp. Windchill Dew Point Humidity Pressure Visibility Wind Dir Wind Speed Gust Speed Precip Events Conditions
12:15 AM 1.4 °F - -2.2 °F 85% 30.65 in 10.0 mi Calm Calm - N/A   Clear
12:35 AM 1.4 °F - -0.4 °F 92% 30.65 in 10.0 mi Calm Calm - N/A   Clear
12:55 AM 1.4 °F - -2.2 °F 85% 30.64 in 10.0 mi Calm Calm - N/A   Clear
1:15 AM 1.4 °F - -0.4 °F 92% 30.63 in 10.0 mi Calm Calm - N/A   Clear
1:35 AM 1.4 °F - -0.4 °F 92% 30.63 in 10.0 mi Calm Calm - N/A   Clear
1:55 AM -0.4 °F - -4.0 °F 85% 30.63 in 10.0 mi Calm Calm - N/A   Clear
2:15 AM -0.4 °F -10.4 °F -4.0 °F 85% 30.62 in 10.0 mi South 4.6 mph - N/A   Clear
2:35 AM -0.4 °F -10.4 °F -4.0 °F 85% 30.61 in 10.0 mi South 4.6 mph - N/A   Clear
2:55 AM -2.2 °F -14.2 °F -4.0 °F 92% 30.61 in 10.0 mi South 5.8 mph - N/A   Clear
3:15 AM -0.4 °F -12.0 °F -4.0 °F 85% 30.61 in 10.0 mi South 5.8 mph - N/A   Clear
3:35 AM -0.4 °F -10.4 °F -4.0 °F 85% 30.61 in 10.0 mi South 4.6 mph - N/A   Clear
3:55 AM -0.4 °F -10.4 °F -4.0 °F 85% 30.61 in 10.0 mi South 4.6 mph - N/A   Clear
4:15 AM -0.4 °F -10.4 °F -4.0 °F 85% 30.60 in 10.0 mi South 4.6 mph - N/A   Clear
4:35 AM -0.4 °F -8.3 °F -4.0 °F 85% 30.59 in 10.0 mi South 3.5 mph - N/A   Clear
4:55 AM -0.4 °F - -4.0 °F 85% 30.58 in 10.0 mi Calm Calm - N/A   Partly Cloudy
5:15 AM -2.2 °F -12.5 °F -4.0 °F 92% 30.57 in 10.0 mi South 4.6 mph - N/A   Clear
5:35 AM -0.4 °F -10.4 °F -2.2 °F 92% 30.56 in 10.0 mi South 4.6 mph - N/A   Clear
5:55 AM -0.4 °F -10.4 °F -4.0 °F 85% 30.55 in 10.0 mi South 4.6 mph - N/A   Clear
6:15 AM -0.4 °F -10.4 °F -2.2 °F 92% 30.54 in 10.0 mi South 4.6 mph - N/A   Clear
6:35 AM 1.4 °F -9.9 °F -2.2 °F 85% 30.53 in 10.0 mi SSE 5.8 mph - N/A   Clear
6:55 AM 1.4 °F -12.5 °F -2.2 °F 85% 30.52 in 10.0 mi SSE 8.1 mph - N/A   Clear
7:15 AM 1.4 °F -9.9 °F -2.2 °F 85% 30.51 in 10.0 mi South 5.8 mph - N/A   Clear
7:35 AM 1.4 °F -9.9 °F -2.2 °F 85% 30.51 in 10.0 mi South 5.8 mph - N/A   Clear
8:15 AM 5.0 °F -8.1 °F 1.4 °F 85% 30.50 in 10.0 mi South 8.1 mph - N/A   Clear
8:35 AM 6.8 °F -9.3 °F 3.2 °F 85% 30.49 in 10.0 mi South 12.7 mph - N/A   Clear
8:55 AM 6.8 °F -11.8 °F 3.2 °F 85% 30.48 in 10.0 mi South 17.3 mph - N/A   Clear
9:15 AM 8.6 °F -8.3 °F 5.0 °F 85% 30.47 in 10.0 mi South 15.0 mph - N/A   Clear
9:35 AM 10.4 °F -7.7 °F 5.0 °F 79% 30.45 in 10.0 mi South 18.4 mph - N/A   Clear
9:55 AM 12.2 °F -6.3 °F 5.0 °F 73% 30.43 in 10.0 mi South 20.7 mph - N/A   Clear
10:15 AM 14.0 °F -2.0 °F 6.8 °F 73% 30.42 in 10.0 mi South 16.1 mph 24.2 mph N/A   Clear
10:35 AM 14.0 °F -3.9 °F 6.8 °F 73% 30.40 in 10.0 mi South 20.7 mph - N/A   Clear
11:15 AM 15.8 °F -2.3 °F 8.6 °F 73% 30.36 in 10.0 mi South 23.0 mph - N/A   Clear
11:35 AM 15.8 °F -2.3 °F 8.6 °F 73% 30.34 in 10.0 mi South 23.0 mph - N/A   Clear
11:55 AM 17.6 °F -0.6 °F 8.6 °F 68% 30.32 in 10.0 mi South 25.3 mph - N/A   Clear
12:15 PM 17.6 °F 0.9 °F 8.6 °F 68% 30.30 in 10.0 mi South 20.7 mph 33.4 mph N/A   Clear
12:35 PM 19.4 °F 2.1 °F 10.4 °F 68% 30.28 in 10.0 mi South 24.2 mph 31.1 mph N/A   Clear
1:15 PM 19.4 °F 1.1 °F 10.4 °F 68% 30.23 in 10.0 mi South 27.6 mph - N/A   Clear
1:35 PM 21.2 °F 3.9 °F 10.4 °F 63% 30.21 in 10.0 mi South 26.5 mph 33.4 mph N/A   Clear
1:55 PM 21.2 °F 3.3 °F 10.4 °F 63% 30.19 in 10.0 mi South 28.8 mph 34.5 mph N/A   Clear
2:15 PM 21.2 °F 3.3 °F 10.4 °F 63% 30.18 in 10.0 mi South 28.8 mph 35.7 mph N/A   Clear
2:35 PM 23.0 °F 5.1 °F 12.2 °F 63% 30.16 in 10.0 mi South 31.1 mph 40.3 mph N/A   Clear
2:55 PM 23.0 °F 6.3 °F 12.2 °F 63% 30.14 in 10.0 mi South 26.5 mph 39.1 mph N/A   Clear
3:35 PM 23.0 °F 5.7 °F 12.2 °F 63% 30.12 in 10.0 mi South 28.8 mph 36.8 mph N/A   Clear
3:55 PM 23.0 °F 6.0 °F 12.2 °F 63% 30.11 in 10.0 mi South 27.6 mph 34.5 mph N/A   Clear
4:15 PM 23.0 °F 6.9 °F 12.2 °F 63% 30.10 in 10.0 mi South 24.2 mph 32.2 mph N/A   Clear
4:35 PM 23.0 °F 7.2 °F 12.2 °F 63% 30.09 in 10.0 mi South 23.0 mph 32.2 mph N/A   Clear
5:15 PM 23.0 °F 9.2 °F 14.0 °F 68% 30.09 in 10.0 mi South 17.3 mph 25.3 mph N/A   Clear
5:35 PM 21.2 °F 6.4 °F 14.0 °F 74% 30.08 in 10.0 mi South 18.4 mph - N/A   Clear
5:55 PM 21.2 °F 6.0 °F 14.0 °F 74% 30.07 in 10.0 mi South 19.6 mph - N/A   Clear
6:15 PM 21.2 °F 6.8 °F 14.0 °F 74% 30.07 in 10.0 mi South 17.3 mph - N/A   Clear
6:35 PM 21.2 °F 6.8 °F 14.0 °F 74% 30.05 in 10.0 mi South 17.3 mph - N/A   Clear
6:55 PM 21.2 °F 6.8 °F 14.0 °F 74% 30.04 in 10.0 mi South 17.3 mph - N/A   Clear
7:15 PM 21.2 °F 7.8 °F 14.0 °F 74% 30.04 in 10.0 mi South 15.0 mph 23.0 mph N/A   Clear
7:35 PM 21.2 °F 6.8 °F 14.0 °F 74% 30.02 in 10.0 mi South 17.3 mph 23.0 mph N/A   Clear
7:55 PM 21.2 °F 6.4 °F 14.0 °F 74% 30.02 in 10.0 mi South 18.4 mph 24.2 mph N/A   Clear
8:15 PM 21.2 °F 6.8 °F 14.0 °F 74% 30.00 in 10.0 mi South 17.3 mph 25.3 mph N/A   Clear
8:35 PM 21.2 °F 7.8 °F 14.0 °F 74% 29.99 in 10.0 mi South 15.0 mph 20.7 mph N/A   Clear
8:55 PM 21.2 °F 6.8 °F 14.0 °F 74% 29.99 in 10.0 mi South 17.3 mph - N/A   Clear
9:15 PM 21.2 °F 6.8 °F 14.0 °F 74% 29.97 in 10.0 mi South 17.3 mph 23.0 mph N/A   Clear
9:35 PM 21.2 °F 6.8 °F 14.0 °F 74% 29.96 in 10.0 mi South 17.3 mph - N/A   Clear
9:55 PM 21.2 °F 6.0 °F 14.0 °F 74% 29.94 in 10.0 mi South 19.6 mph 25.3 mph N/A   Clear
10:15 PM 21.2 °F 7.8 °F 14.0 °F 74% 29.95 in 10.0 mi South 15.0 mph - N/A   Clear
10:35 PM 21.2 °F 6.8 °F 14.0 °F 74% 29.93 in 10.0 mi South 17.3 mph 23.0 mph N/A   Clear
10:55 PM 21.2 °F 7.8 °F 14.0 °F 74% 29.93 in 10.0 mi South 15.0 mph - N/A   Clear
11:15 PM 21.2 °F 7.3 °F 14.0 °F 74% 29.92 in 10.0 mi South 16.1 mph - N/A   Clear
11:35 PM 23.0 °F 9.6 °F 14.0 °F 68% 29.91 in 10.0 mi South 16.1 mph 23.0 mph N/A   Clear
11:55 PM 23.0 °F 10.1 °F 14.0 °F 68% 29.90 in 10.0 mi South 15.0 mph 20.7 mph N/A   Scattered Clouds